owner,sensor,date,latitude,longitude,vertical_datum,wind_speed,wind_to_direction,wind_speed_of_gust,qcFlag 
TABS,ioos:station:wmo:42044:1,2017-03-01T00:00:00Z,26.1914,-97.0507,0.0,5.09739149,151.2731992,5.98,'11111222,11111222,11111222' 
TABS,ioos:station:wmo:42044:1,2017-03-01T00:30:00Z,26.1914,-97.0507,0.0,6.720305053,145.9791734,7.79,'11111222,11111222,11111222' 
TABS,ioos:station:wmo:42044:1,2017-03-01T01:00:00Z,26.1914,-97.0507,0.0,5.481505268,147.44091,6.78,'11111222,11111222,11111222' 
TABS,ioos:station:wmo:42044:1,2017-03-01T01:30:00Z,26.1914,-97.0507,0.0,6.790147274,147.0825427,8.13,'11111222,11111222,11111222' 
TABS,ioos:station:wmo:42044:1,2017-03-01T02:00:00Z,26.1914,-97.0507,0.0,6.539143675,152.4947481,8.12,'11111222,11111222,11111222' 
TABS,ioos:station:wmo:42044:1,2017-03-01T02:30:00Z,26.1914,-97.0507,0.0,7.097901098,154.1933426,9.22,'11111222,11111222,11111222' 
TABS,ioos:station:wmo:42044:1,2017-03-01T03:00:00Z,26.1914,-97.0507,0.0,7.931538312,154.8568182,9.18,'11111222,11111222,11111222' 
TABS,ioos:station:wmo:42044:1,2017-03-01T03:30:00Z,26.1914,-97.0507,0.0,8.261942871,159.5253801,10.05,'11111222,11111222,11111222' 
TABS,ioos:station:wmo:42044:1,2017-03-01T04:00:00Z,26.1914,-97.0507,0.0,7.940484872,161.4968512,9.97,'11111222,11111222,11111222' 
TABS,ioos:station:wmo:42044:1,2017-03-01T04:30:00Z,26.1914,-97.0507,0.0,7.624729503,162.2069131,9.14,'11111222,11111222,11111222' 
TABS,ioos:station:wmo:42044:1,2017-03-01T05:00:00Z,26.1914,-97.0507,0.0,7.464650025,160.3515955,9.0,'11111222,11111222,11111222' 
TABS,ioos:station:wmo:42044:1,2017-03-01T05:30:00Z,26.1914,-97.0507,0.0,7.47800107,163.7706913,8.88,'11111222,11111222,11111222' 
TABS,ioos:station:wmo:42044:1,2017-03-01T06:00:00Z,26.1914,-97.0507,0.0,5.549099026,175.2451545,6.58,'11111222,11111222,11111222' 
TABS,ioos:station:wmo:42044:1,2017-03-01T06:30:00Z,26.1914,-97.0507,0.0,5.180241307,180.5532401,6.3,'11111222,11111222,11111222' 
TABS,ioos:station:wmo:42044:1,2017-03-01T07:00:00Z,26.1914,-97.0507,0.0,3.988107321,208.9431137,4.78,'11111222,11111222,11111222' 
TABS,ioos:station:wmo:42044:1,2017-03-01T07:30:00Z,26.1914,-97.0507,0.0,5.007074994,200.8240675,6.43,'11111222,11111222,11111222' 
TABS,ioos:station:wmo:42044:1,2017-03-01T08:00:00Z,26.1914,-97.0507,0.0,5.871030574,181.0737681,6.99,'11111222,11111222,11111222' 
TABS,ioos:station:wmo:42044:1,2017-03-01T08:30:00Z,26.1914,-97.0507,0.0,6.245782577,171.0657574,7.44,'11111222,11111222,11111222' 
TABS,ioos:station:wmo:42044:1,2017-03-01T09:00:00Z,26.1914,-97.0507,0.0,6.359787732,165.2429256,7.49,'11111222,11111222,11111222' 
TABS,ioos:station:wmo:42044:1,2017-03-01T09:30:00Z,26.1914,-97.0507,0.0,5.874529768,167.7147467,6.81,'11111222,11111222,11111222' 
TABS,ioos:station:wmo:42044:1,2017-03-01T10:00:00Z,26.1914,-97.0507,0.0,5.585311092,172.697077,6.86,'11111222,11111222,11111222' 
TABS,ioos:station:wmo:42044:1,2017-03-01T10:30:00Z,26.1914,-97.0507,0.0,5.771949411,181.4893632,6.89,'11111222,11111222,11111222' 
TABS,ioos:station:wmo:42044:1,2017-03-01T11:00:00Z,26.1914,-97.0507,0.0,4.191145428,186.9895593,5.26,'11111222,11111222,11111222' 
TABS,ioos:station:wmo:42044:1,2017-03-01T11:30:00Z,26.1914,-97.0507,0.0,2.452039967,193.9230768,2.91,'11111222,11111222,11111222' 
TABS,ioos:station:wmo:42044:1,2017-03-01T12:00:00Z,26.1914,-97.0507,0.0,1.772258446,170.9099548,2.33,'11111222,11111222,11111222' 
TABS,ioos:station:wmo:42044:1,2017-03-01T12:30:00Z,26.1914,-97.0507,0.0,1.449413675,152.0208015,2.21,'11111222,11111222,11111222' 
TABS,ioos:station:wmo:42044:1,2017-03-01T13:00:00Z,26.1914,-97.0507,0.0,1.504559736,119.461827,2.03,'11111222,11111222,11111222' 
TABS,ioos:station:wmo:42044:1,2017-03-01T13:30:00Z,26.1914,-97.0507,0.0,3.203404439,123.5415901,3.96,'11111222,11111222,11111222' 
TABS,ioos:station:wmo:42044:1,2017-03-01T14:00:00Z,26.1914,-97.0507,0.0,5.044838947,142.0854714,6.09,'11111222,11111222,11111222' 
TABS,ioos:station:wmo:42044:1,2017-03-01T14:30:00Z,26.1914,-97.0507,0.0,3.024053571,126.5291909,4.92,'11111222,11111222,11111222' 
TABS,ioos:station:wmo:42044:1,2017-03-01T15:00:00Z,26.1914,-97.0507,0.0,4.327817002,139.6862046,5.59,'11111222,11111222,11111222' 
TABS,ioos:station:wmo:42044:1,2017-03-01T15:30:00Z,26.1914,-97.0507,0.0,5.686202599,142.6467329,6.65,'11111222,11111222,11111222' 
TABS,ioos:station:wmo:42044:1,2017-03-01T16:00:00Z,26.1914,-97.0507,0.0,5.166430102,158.8990514,6.18,'11111222,11111222,11111222' 
TABS,ioos:station:wmo:42044:1,2017-03-01T16:30:00Z,26.1914,-97.0507,0.0,5.513229544,160.2835162,6.48,'11111222,11111222,11111222' 
TABS,ioos:station:wmo:42044:1,2017-03-01T17:00:00Z,26.1914,-97.0507,0.0,3.678505131,176.1032576,4.47,'11111222,11111222,11111222' 
TABS,ioos:station:wmo:42044:1,2017-03-01T17:30:00Z,26.1914,-97.0507,0.0,2.904513729,185.7304188,3.92,'11111222,11111222,11111222' 
TABS,ioos:station:wmo:42044:1,2017-03-01T18:00:00Z,26.1914,-97.0507,0.0,1.95532606,151.6002905,2.65,'11111222,11111222,11111222' 
TABS,ioos:station:wmo:42044:1,2017-03-01T18:30:00Z,26.1914,-97.0507,0.0,1.968146336,127.5689251,3.16,'11111222,11111222,11111222' 
TABS,ioos:station:wmo:42044:1,2017-03-01T19:00:00Z,26.1914,-97.0507,0.0,2.793080736,107.0729464,3.33,'11111222,11111222,11111222' 
TABS,ioos:station:wmo:42044:1,2017-03-01T19:30:00Z,26.1914,-97.0507,0.0,3.07566253,95.78514578,3.68,'11111222,11111222,11111222' 
TABS,ioos:station:wmo:42044:1,2017-03-01T20:00:00Z,26.1914,-97.0507,0.0,4.028659827,104.5195455,4.82,'11111222,11111222,11111222' 
TABS,ioos:station:wmo:42044:1,2017-03-01T20:30:00Z,26.1914,-97.0507,0.0,3.928218426,101.4533512,4.71,'11111222,11111222,11111222' 
TABS,ioos:station:wmo:42044:1,2017-03-01T21:00:00Z,26.1914,-97.0507,0.0,4.298022801,96.54669639,5.06,'11111222,11111222,11111222' 
TABS,ioos:station:wmo:42044:1,2017-03-01T21:30:00Z,26.1914,-97.0507,0.0,3.902332636,85.4432313,4.84,'11111222,11111222,11111222' 
TABS,ioos:station:wmo:42044:1,2017-03-01T22:00:00Z,26.1914,-97.0507,0.0,4.136725758,82.35919019,5.01,'11111222,11111222,11111222' 
TABS,ioos:station:wmo:42044:1,2017-03-01T22:30:00Z,26.1914,-97.0507,0.0,4.3293533,72.10873546,5.02,'11111222,11111222,11111222' 
TABS,ioos:station:wmo:42044:1,2017-03-01T23:00:00Z,26.1914,-97.0507,0.0,4.861481256,54.54418756,5.95,'11111222,11111222,11111222' 
TABS,ioos:station:wmo:42044:1,2017-03-01T23:30:00Z,26.1914,-97.0507,0.0,4.674237906,45.60642338,5.65,'11111222,11111222,11111222' 
TABS,ioos:station:wmo:42044:1,2017-03-02T00:00:00Z,26.1914,-97.0507,0.0,4.447707275,45.09077429,5.26,'11111222,11111222,11111222' 
TABS,ioos:station:wmo:42044:1,2017-03-02T00:30:00Z,26.1914,-97.0507,0.0,4.572231403,37.44604689,5.36,'11111222,11111222,11111222' 
TABS,ioos:station:wmo:42044:1,2017-03-02T01:00:00Z,26.1914,-97.0507,0.0,3.912454473,31.94300566,4.55,'11111222,11111222,11111222' 
TABS,ioos:station:wmo:42044:1,2017-03-02T01:30:00Z,26.1914,-97.0507,0.0,4.74523972,27.21276958,5.46,'11111222,11111222,11111222' 
TABS,ioos:station:wmo:42044:1,2017-03-02T02:00:00Z,26.1914,-97.0507,0.0,5.052613185,13.15586747,6.25,'11111222,11111222,11111222' 
TABS,ioos:station:wmo:42044:1,2017-03-02T02:30:00Z,26.1914,-97.0507,0.0,9.390532466,19.53454391,11.89,'11111222,11111222,11111222' 
TABS,ioos:station:wmo:42044:1,2017-03-02T03:00:00Z,26.1914,-97.0507,0.0,8.800051136,24.14732373,11.07,'11111222,11111222,11111222' 
TABS,ioos:station:wmo:42044:1,2017-03-02T03:30:00Z,26.1914,-97.0507,0.0,8.643986349,23.4507279,10.72,'11111222,11111222,11111222' 
TABS,ioos:station:wmo:42044:1,2017-03-02T04:00:00Z,26.1914,-97.0507,0.0,9.834734363,18.25046552,11.98,'11111222,11111222,11111222' 
TABS,ioos:station:wmo:42044:1,2017-03-02T04:30:00Z,26.1914,-97.0507,0.0,10.28938288,21.85284957,12.37,'11111222,11111222,11111222' 
TABS,ioos:station:wmo:42044:1,2017-03-02T05:00:00Z,26.1914,-97.0507,0.0,10.03701649,19.86092314,12.29,'11111222,11111222,11111222' 
TABS,ioos:station:wmo:42044:1,2017-03-02T05:30:00Z,26.1914,-97.0507,0.0,10.09601902,17.28606429,12.38,'11111222,11111222,11111222' 
TABS,ioos:station:wmo:42044:1,2017-03-02T06:00:00Z,26.1914,-97.0507,0.0,10.79122329,12.63222867,12.63,'11111222,11111222,11111222' 
TABS,ioos:station:wmo:42044:1,2017-03-02T06:30:00Z,26.1914,-97.0507,0.0,9.951341618,11.82911368,12.01,'11111222,11111222,11111222' 
TABS,ioos:station:wmo:42044:1,2017-03-02T07:00:00Z,26.1914,-97.0507,0.0,10.1905888,15.07241868,12.19,'11111222,11111222,11111222' 
TABS,ioos:station:wmo:42044:1,2017-03-02T07:30:00Z,26.1914,-97.0507,0.0,10.25177546,20.85668582,12.63,'11111222,11111222,11111222' 
TABS,ioos:station:wmo:42044:1,2017-03-02T08:00:00Z,26.1914,-97.0507,0.0,9.793518265,19.87788491,12.02,'11111222,11111222,11111222' 
TABS,ioos:station:wmo:42044:1,2017-03-02T08:30:00Z,26.1914,-97.0507,0.0,9.464042477,23.93763472,12.21,'11111222,11111222,11111222' 
TABS,ioos:station:wmo:42044:1,2017-03-02T09:00:00Z,26.1914,-97.0507,0.0,10.50235212,24.5881676,12.39,'11111222,11111222,11111222' 
TABS,ioos:station:wmo:42044:1,2017-03-02T09:30:00Z,26.1914,-97.0507,0.0,9.794003267,26.43396685,11.96,'11111222,11111222,11111222' 
TABS,ioos:station:wmo:42044:1,2017-03-02T10:00:00Z,26.1914,-97.0507,0.0,10.17342617,30.67371394,12.15,'11111222,11111222,11111222' 
TABS,ioos:station:wmo:42044:1,2017-03-02T10:30:00Z,26.1914,-97.0507,0.0,10.43396377,33.50701768,12.72,'11111222,11111222,11111222' 
TABS,ioos:station:wmo:42044:1,2017-03-02T11:00:00Z,26.1914,-97.0507,0.0,10.58038279,29.37517375,12.73,'11111222,11111222,11111222' 
TABS,ioos:station:wmo:42044:1,2017-03-02T11:30:00Z,26.1914,-97.0507,0.0,9.823655124,31.34357188,12.16,'11111222,11111222,11111222' 
TABS,ioos:station:wmo:42044:1,2017-03-02T12:00:00Z,26.1914,-97.0507,0.0,10.0052986,31.17953438,12.08,'11111222,11111222,11111222' 
TABS,ioos:station:wmo:42044:1,2017-03-02T12:30:00Z,26.1914,-97.0507,0.0,10.99495339,35.14968436,12.99,'11111222,11111222,11111222' 
TABS,ioos:station:wmo:42044:1,2017-03-02T13:00:00Z,26.1914,-97.0507,0.0,10.79208043,33.20385925,12.82,'11111222,11111222,11111222' 
TABS,ioos:station:wmo:42044:1,2017-03-02T13:30:00Z,26.1914,-97.0507,0.0,11.08990532,31.6546032,13.37,'11111222,11111222,11111222' 
TABS,ioos:station:wmo:42044:1,2017-03-02T14:00:00Z,26.1914,-97.0507,0.0,10.83891138,33.48452352,13.5,'11111222,11111222,11111222' 
TABS,ioos:station:wmo:42044:1,2017-03-02T14:30:00Z,26.1914,-97.0507,0.0,10.18475822,34.23588037,12.26,'11111222,11111222,11111222' 
TABS,ioos:station:wmo:42044:1,2017-03-02T15:00:00Z,26.1914,-97.0507,0.0,10.18886647,34.76599244,12.5,'11111222,11111222,11111222' 
TABS,ioos:station:wmo:42044:1,2017-03-02T15:30:00Z,26.1914,-97.0507,0.0,9.860045639,37.04392795,11.75,'11111222,11111222,11111222' 
TABS,ioos:station:wmo:42044:1,2017-03-02T16:00:00Z,26.1914,-97.0507,0.0,9.446544342,33.68977829,11.52,'11111222,11111222,11111222' 
TABS,ioos:station:wmo:42044:1,2017-03-02T16:30:00Z,26.1914,-97.0507,0.0,9.208197435,35.13955443,11.06,'11111222,11111222,11111222' 
TABS,ioos:station:wmo:42044:1,2017-03-02T17:00:00Z,26.1914,-97.0507,0.0,8.338489072,32.66062589,10.47,'11111222,11111222,11111222' 
TABS,ioos:station:wmo:42044:1,2017-03-02T17:30:00Z,26.1914,-97.0507,0.0,8.489640746,27.65139395,10.32,'11111222,11111222,11111222' 
TABS,ioos:station:wmo:42044:1,2017-03-02T18:00:00Z,26.1914,-97.0507,0.0,8.31048735,28.69271703,9.85,'11111222,11111222,11111222' 
TABS,ioos:station:wmo:42044:1,2017-03-02T18:30:00Z,26.1914,-97.0507,0.0,8.148159301,29.23873112,10.18,'11111222,11111222,11111222' 
TABS,ioos:station:wmo:42044:1,2017-03-02T19:00:00Z,26.1914,-97.0507,0.0,8.777955343,29.63125693,10.57,'11111222,11111222,11111222' 
TABS,ioos:station:wmo:42044:1,2017-03-02T19:30:00Z,26.1914,-97.0507,0.0,9.00849044,24.45947834,11.26,'11111222,11111222,11111222' 
TABS,ioos:station:wmo:42044:1,2017-03-02T20:00:00Z,26.1914,-97.0507,0.0,8.660005774,22.68576282,10.32,'11111222,11111222,11111222' 
TABS,ioos:station:wmo:42044:1,2017-03-02T20:30:00Z,26.1914,-97.0507,0.0,9.174012208,28.66002626,10.95,'11111222,11111222,11111222' 
TABS,ioos:station:wmo:42044:1,2017-03-02T21:00:00Z,26.1914,-97.0507,0.0,8.91298491,26.44978498,10.98,'11111222,11111222,11111222' 
TABS,ioos:station:wmo:42044:1,2017-03-02T21:30:00Z,26.1914,-97.0507,0.0,9.624853246,23.44845528,11.67,'11111222,11111222,11111222' 
TABS,ioos:station:wmo:42044:1,2017-03-02T22:00:00Z,26.1914,-97.0507,0.0,9.094492839,25.1840884,11.43,'11111222,11111222,11111222' 
TABS,ioos:station:wmo:42044:1,2017-03-02T22:30:00Z,26.1914,-97.0507,0.0,9.008335029,33.63685745,11.37,'11111222,11111222,11111222' 
TABS,ioos:station:wmo:42044:1,2017-03-02T23:00:00Z,26.1914,-97.0507,0.0,9.208105125,33.931385,11.7,'11111222,11111222,11111222' 
TABS,ioos:station:wmo:42044:1,2017-03-02T23:30:00Z,26.1914,-97.0507,0.0,8.972012037,35.65616228,11.06,'11111222,11111222,11111222' 
TABS,ioos:station:wmo:42044:1,2017-03-03T00:00:00Z,26.1914,-97.0507,0.0,9.217423718,35.86255466,11.57,'11111222,11111222,11111222' 
TABS,ioos:station:wmo:42044:1,2017-03-03T00:30:00Z,26.1914,-97.0507,0.0,9.766887938,31.13450494,11.63,'11111222,11111222,11111222' 
TABS,ioos:station:wmo:42044:1,2017-03-03T01:00:00Z,26.1914,-97.0507,0.0,8.996288123,36.41104179,11.13,'11111222,11111222,11111222' 
TABS,ioos:station:wmo:42044:1,2017-03-03T01:30:00Z,26.1914,-97.0507,0.0,8.875415483,38.8712271,10.79,'11111222,11111222,11111222' 
TABS,ioos:station:wmo:42044:1,2017-03-03T02:00:00Z,26.1914,-97.0507,0.0,8.636602341,38.27616069,10.33,'11111222,11111222,11111222' 
TABS,ioos:station:wmo:42044:1,2017-03-03T02:30:00Z,26.1914,-97.0507,0.0,8.924488781,42.59295713,10.77,'11111222,11111222,11111222' 
TABS,ioos:station:wmo:42044:1,2017-03-03T03:00:00Z,26.1914,-97.0507,0.0,9.110680545,42.2860707,10.84,'11111222,11111222,11111222' 
TABS,ioos:station:wmo:42044:1,2017-03-03T03:30:00Z,26.1914,-97.0507,0.0,8.559637843,48.69410898,10.4,'11111222,11111222,11111222' 
TABS,ioos:station:wmo:42044:1,2017-03-03T04:00:00Z,26.1914,-97.0507,0.0,8.176906506,46.48626186,9.8,'11111222,11111222,11111222' 
TABS,ioos:station:wmo:42044:1,2017-03-03T04:30:00Z,26.1914,-97.0507,0.0,8.192392813,49.50458064,10.21,'11111222,11111222,11111222' 
TABS,ioos:station:wmo:42044:1,2017-03-03T05:00:00Z,26.1914,-97.0507,0.0,8.119667481,43.70226954,10.35,'11111222,11111222,11111222' 
TABS,ioos:station:wmo:42044:1,2017-03-03T05:30:00Z,26.1914,-97.0507,0.0,7.50856178,47.32048092,9.44,'11111222,11111222,11111222' 
TABS,ioos:station:wmo:42044:1,2017-03-03T06:00:00Z,26.1914,-97.0507,0.0,7.531885554,46.02175172,9.24,'11111222,11111222,11111222' 
TABS,ioos:station:wmo:42044:1,2017-03-03T06:30:00Z,26.1914,-97.0507,0.0,7.36854124,45.65948983,9.23,'11111222,11111222,11111222' 
TABS,ioos:station:wmo:42044:1,2017-03-03T07:00:00Z,26.1914,-97.0507,0.0,7.069377625,42.76405264,8.85,'11111222,11111222,11111222' 
TABS,ioos:station:wmo:42044:1,2017-03-03T07:30:00Z,26.1914,-97.0507,0.0,7.29647175,40.72023079,8.83,'11111222,11111222,11111222' 
TABS,ioos:station:wmo:42044:1,2017-03-03T08:00:00Z,26.1914,-97.0507,0.0,7.097069818,41.68686656,8.57,'11111222,11111222,11111222' 
TABS,ioos:station:wmo:42044:1,2017-03-03T08:30:00Z,26.1914,-97.0507,0.0,7.108621526,43.57471337,8.49,'11111222,11111222,11111222' 
TABS,ioos:station:wmo:42044:1,2017-03-03T09:00:00Z,26.1914,-97.0507,0.0,7.207808266,41.11831736,8.68,'11111222,11111222,11111222' 
TABS,ioos:station:wmo:42044:1,2017-03-03T09:30:00Z,26.1914,-97.0507,0.0,7.288923103,31.42182905,8.85,'11111222,11111222,11111222' 
TABS,ioos:station:wmo:42044:1,2017-03-03T10:00:00Z,26.1914,-97.0507,0.0,7.145886929,40.17484552,8.66,'11111222,11111222,11111222' 
TABS,ioos:station:wmo:42044:1,2017-03-03T10:30:00Z,26.1914,-97.0507,0.0,7.605011506,35.25712651,9.33,'11111222,11111222,11111222' 
TABS,ioos:station:wmo:42044:1,2017-03-03T11:00:00Z,26.1914,-97.0507,0.0,7.344794075,36.02707868,9.13,'11111222,11111222,11111222' 
TABS,ioos:station:wmo:42044:1,2017-03-03T11:30:00Z,26.1914,-97.0507,0.0,7.489539372,42.29396372,10.35,'11111222,11111222,11111222' 
TABS,ioos:station:wmo:42044:1,2017-03-03T12:00:00Z,26.1914,-97.0507,0.0,7.014627574,44.65314229,8.8,'11111222,11111222,11111222' 
TABS,ioos:station:wmo:42044:1,2017-03-03T12:30:00Z,26.1914,-97.0507,0.0,7.427624115,51.33986123,9.14,'11111222,11111222,11111222' 
TABS,ioos:station:wmo:42044:1,2017-03-03T13:00:00Z,26.1914,-97.0507,0.0,7.775975823,40.30528272,8.96,'11111222,11111222,11111222' 
TABS,ioos:station:wmo:42044:1,2017-03-03T13:30:00Z,26.1914,-97.0507,0.0,7.730006468,36.79547987,9.45,'11111222,11111222,11111222' 
TABS,ioos:station:wmo:42044:1,2017-03-03T14:00:00Z,26.1914,-97.0507,0.0,7.01906689,49.91191028,9.0,'11111222,11111222,11111222' 
TABS,ioos:station:wmo:42044:1,2017-03-03T14:30:00Z,26.1914,-97.0507,0.0,6.968414454,53.75466668,8.76,'11111222,11111222,11111222' 
TABS,ioos:station:wmo:42044:1,2017-03-03T15:00:00Z,26.1914,-97.0507,0.0,7.524526563,56.43630369,9.36,'11111222,11111222,11111222' 
TABS,ioos:station:wmo:42044:1,2017-03-03T15:30:00Z,26.1914,-97.0507,0.0,7.923736492,59.68075378,9.24,'11111222,11111222,11111222' 
TABS,ioos:station:wmo:42044:1,2017-03-03T16:00:00Z,26.1914,-97.0507,0.0,7.844188932,63.66324874,9.3,'11111222,11111222,11111222' 
TABS,ioos:station:wmo:42044:1,2017-03-03T16:30:00Z,26.1914,-97.0507,0.0,7.617046672,60.50667623,9.02,'11111222,11111222,11111222' 
TABS,ioos:station:wmo:42044:1,2017-03-03T17:00:00Z,26.1914,-97.0507,0.0,7.374618634,59.43562553,8.77,'11111222,11111222,11111222' 
TABS,ioos:station:wmo:42044:1,2017-03-03T17:30:00Z,26.1914,-97.0507,0.0,7.148370444,66.59055278,8.94,'11111222,11111222,11111222' 
TABS,ioos:station:wmo:42044:1,2017-03-03T18:00:00Z,26.1914,-97.0507,0.0,6.734010692,60.65579865,8.1,'11111222,11111222,11111222' 
TABS,ioos:station:wmo:42044:1,2017-03-03T18:30:00Z,26.1914,-97.0507,0.0,6.474720071,60.58404904,8.3,'11111222,11111222,11111222' 
TABS,ioos:station:wmo:42044:1,2017-03-03T19:00:00Z,26.1914,-97.0507,0.0,6.707920691,61.40963688,8.22,'11111222,11111222,11111222' 
TABS,ioos:station:wmo:42044:1,2017-03-03T19:30:00Z,26.1914,-97.0507,0.0,6.15201593,55.66381465,7.63,'11111222,11111222,11111222' 
TABS,ioos:station:wmo:42044:1,2017-03-03T20:00:00Z,26.1914,-97.0507,0.0,6.385240794,50.40090218,7.76,'11111222,11111222,11111222' 
TABS,ioos:station:wmo:42044:1,2017-03-03T20:30:00Z,26.1914,-97.0507,0.0,6.829560747,54.35470757,8.38,'11111222,11111222,11111222' 
TABS,ioos:station:wmo:42044:1,2017-03-03T21:00:00Z,26.1914,-97.0507,0.0,6.890878028,49.11880266,8.32,'11111222,11111222,11111222' 
TABS,ioos:station:wmo:42044:1,2017-03-03T21:30:00Z,26.1914,-97.0507,0.0,7.250172412,52.73463154,8.74,'11111222,11111222,11111222' 
TABS,ioos:station:wmo:42044:1,2017-03-03T22:00:00Z,26.1914,-97.0507,0.0,7.351115562,51.46158539,8.65,'11111222,11111222,11111222' 
TABS,ioos:station:wmo:42044:1,2017-03-03T22:30:00Z,26.1914,-97.0507,0.0,7.618300335,57.7072767,9.32,'11111222,11111222,11111222' 
TABS,ioos:station:wmo:42044:1,2017-03-03T23:00:00Z,26.1914,-97.0507,0.0,8.002924465,59.84628082,10.13,'11111222,11111222,11111222' 
TABS,ioos:station:wmo:42044:1,2017-03-03T23:30:00Z,26.1914,-97.0507,0.0,7.1869952,62.93544955,8.96,'11111222,11111222,11111222' 
TABS,ioos:station:wmo:42044:1,2017-03-04T00:00:00Z,26.1914,-97.0507,0.0,7.912199441,62.52778159,9.67,'11111222,11111222,11111222' 
TABS,ioos:station:wmo:42044:1,2017-03-04T00:30:00Z,26.1914,-97.0507,0.0,7.649267939,67.55838321,9.35,'11111222,11111222,11111222' 
TABS,ioos:station:wmo:42044:1,2017-03-04T01:00:00Z,26.1914,-97.0507,0.0,7.771447742,65.11636244,9.41,'11111222,11111222,11111222' 
TABS,ioos:station:wmo:42044:1,2017-03-04T01:30:00Z,26.1914,-97.0507,0.0,8.170979133,65.41060012,9.68,'11111222,11111222,11111222' 
TABS,ioos:station:wmo:42044:1,2017-03-04T02:00:00Z,26.1914,-97.0507,0.0,7.380758769,71.51557685,9.09,'11111222,11111222,11111222' 
TABS,ioos:station:wmo:42044:1,2017-03-04T02:30:00Z,26.1914,-97.0507,0.0,6.924160599,69.36610308,8.41,'11111222,11111222,11111222' 
TABS,ioos:station:wmo:42044:1,2017-03-04T03:00:00Z,26.1914,-97.0507,0.0,7.15924577,73.94429036,8.39,'11111222,11111222,11111222' 
TABS,ioos:station:wmo:42044:1,2017-03-04T03:30:00Z,26.1914,-97.0507,0.0,7.080014124,75.35490724,8.4,'11111222,11111222,11111222' 
TABS,ioos:station:wmo:42044:1,2017-03-04T04:00:00Z,26.1914,-97.0507,0.0,6.424398805,77.41276019,7.8,'11111222,11111222,11111222' 
TABS,ioos:station:wmo:42044:1,2017-03-04T04:30:00Z,26.1914,-97.0507,0.0,6.334556022,78.61871873,7.71,'11111222,11111222,11111222' 
TABS,ioos:station:wmo:42044:1,2017-03-04T05:00:00Z,26.1914,-97.0507,0.0,6.623239389,78.06194014,8.43,'11111222,11111222,11111222' 
TABS,ioos:station:wmo:42044:1,2017-03-04T05:30:00Z,26.1914,-97.0507,0.0,5.345353122,84.41698638,6.73,'11111222,11111222,11111222' 
TABS,ioos:station:wmo:42044:1,2017-03-04T06:00:00Z,26.1914,-97.0507,0.0,5.803283553,100.826259,7.03,'11111222,11111222,11111222' 
TABS,ioos:station:wmo:42044:1,2017-03-04T06:30:00Z,26.1914,-97.0507,0.0,5.64669815,104.7749366,7.26,'11111222,11111222,11111222' 
TABS,ioos:station:wmo:42044:1,2017-03-04T07:00:00Z,26.1914,-97.0507,0.0,5.510762198,99.82166874,6.35,'11111222,11111222,11111222' 
TABS,ioos:station:wmo:42044:1,2017-03-04T07:30:00Z,26.1914,-97.0507,0.0,5.388144393,96.82206252,6.57,'11111222,11111222,11111222' 
TABS,ioos:station:wmo:42044:1,2017-03-04T08:00:00Z,26.1914,-97.0507,0.0,5.219904214,111.6998663,7.1,'11111222,11111222,11111222' 
TABS,ioos:station:wmo:42044:1,2017-03-04T08:30:00Z,26.1914,-97.0507,0.0,5.548630462,99.02134105,6.55,'11111222,11111222,11111222' 
TABS,ioos:station:wmo:42044:1,2017-03-04T09:00:00Z,26.1914,-97.0507,0.0,7.117871873,100.4420384,9.09,'11111222,11111222,11111222' 
TABS,ioos:station:wmo:42044:1,2017-03-04T09:30:00Z,26.1914,-97.0507,0.0,5.42005535,93.49102443,6.58,'11111222,11111222,11111222' 
TABS,ioos:station:wmo:42044:1,2017-03-04T10:00:00Z,26.1914,-97.0507,0.0,5.401407224,107.898615,6.8,'11111222,11111222,11111222' 
TABS,ioos:station:wmo:42044:1,2017-03-04T10:30:00Z,26.1914,-97.0507,0.0,5.176098917,106.6148066,6.43,'11111222,11111222,11111222' 
TABS,ioos:station:wmo:42044:1,2017-03-04T11:00:00Z,26.1914,-97.0507,0.0,4.910244393,102.7063887,6.0,'11111222,11111222,11111222' 
TABS,ioos:station:wmo:42044:1,2017-03-04T11:30:00Z,26.1914,-97.0507,0.0,6.1363833,104.534842,7.38,'11111222,11111222,11111222' 
TABS,ioos:station:wmo:42044:1,2017-03-04T12:00:00Z,26.1914,-97.0507,0.0,5.716861027,92.807766,7.38,'11111222,11111222,11111222' 
TABS,ioos:station:wmo:42044:1,2017-03-04T12:30:00Z,26.1914,-97.0507,0.0,5.302923722,94.00135105,6.34,'11111222,11111222,11111222' 
TABS,ioos:station:wmo:42044:1,2017-03-04T13:00:00Z,26.1914,-97.0507,0.0,5.560791311,98.48021901,6.64,'11111222,11111222,11111222' 
TABS,ioos:station:wmo:42044:1,2017-03-04T13:30:00Z,26.1914,-97.0507,0.0,5.5953016,103.9621249,6.71,'11111222,11111222,11111222' 
TABS,ioos:station:wmo:42044:1,2017-03-04T14:00:00Z,26.1914,-97.0507,0.0,5.483830778,109.162222,6.43,'11111222,11111222,11111222' 
TABS,ioos:station:wmo:42044:1,2017-03-04T14:30:00Z,26.1914,-97.0507,0.0,5.579838707,109.799251,6.89,'11111222,11111222,11111222' 
TABS,ioos:station:wmo:42044:1,2017-03-04T15:00:00Z,26.1914,-97.0507,0.0,5.143772934,111.6776735,6.36,'11111222,11111222,11111222' 
TABS,ioos:station:wmo:42044:1,2017-03-04T15:30:00Z,26.1914,-97.0507,0.0,5.030159043,105.8049658,6.26,'11111222,11111222,11111222' 
TABS,ioos:station:wmo:42044:1,2017-03-04T16:00:00Z,26.1914,-97.0507,0.0,5.791804555,115.9017835,7.18,'11111222,11111222,11111222' 
TABS,ioos:station:wmo:42044:1,2017-03-04T16:30:00Z,26.1914,-97.0507,0.0,6.874656355,115.5962852,7.98,'11111222,11111222,11111222' 
TABS,ioos:station:wmo:42044:1,2017-03-04T17:00:00Z,26.1914,-97.0507,0.0,7.435657335,110.3850637,8.69,'11111222,11111222,11111222' 
TABS,ioos:station:wmo:42044:1,2017-03-04T17:30:00Z,26.1914,-97.0507,0.0,6.392002816,111.1858999,7.8,'11111222,11111222,11111222' 
TABS,ioos:station:wmo:42044:1,2017-03-04T18:00:00Z,26.1914,-97.0507,0.0,5.534419572,122.4556571,6.67,'11111222,11111222,11111222' 
TABS,ioos:station:wmo:42044:1,2017-03-04T18:30:00Z,26.1914,-97.0507,0.0,5.153736509,119.4004977,6.18,'11111222,11111222,11111222' 